Location: Devore Heights
(34.2372°N, 117.4156°W)
Time: 00:28:13
(UTC+00:00)

Vanguard 2 Rocket - Pass Details

Date: 16 September 2024
Orbit: 553 x 3298 km, 32.9° (Epoch: 09 October)

Event Time Altitude Azimuth Distance (km) Brightness Sun altitude
Exits shadow 12:15:19 18° 275° (W) 4,148 9.7 -16.9°
Maximum altitude 12:27:30 80° 192° (SSW) 2,930 9.3 -14.4°
Drops below altitude 10° 12:47:49 10° 109° (ESE) 6,239 12.2 -10.3°
Sets 12:52:34 0° 108° (ESE) 7,191 12.7 -9.3°
